TimeCDT,TemperatureF,Dew PointF,Humidity,Sea Level PressureIn,VisibilityMPH,Wind Direction,Wind SpeedMPH,Gust SpeedMPH,PrecipitationIn,Events,Conditions,WindDirDegrees,DateUTC
12:53 AM,62.1,55.9,80,30.04,10.0,Calm,Calm,-,N/A,,Overcast,0,2013-07-04 05:53:00
1:53 AM,62.1,57.0,84,30.03,10.0,SW,4.6,-,N/A,,Overcast,220,2013-07-04 06:53:00
2:53 AM,62.1,55.9,80,30.03,10.0,SW,6.9,-,N/A,,Overcast,230,2013-07-04 07:53:00
3:53 AM,59.0,55.9,90,30.03,10.0,SSW,3.5,-,N/A,,Partly Cloudy,210,2013-07-04 08:53:00
4:53 AM,59.0,55.9,90,30.04,9.0,SW,4.6,-,N/A,,Overcast,220,2013-07-04 09:53:00
5:53 AM,60.1,57.0,90,30.05,7.0,SSW,5.8,-,N/A,,Overcast,210,2013-07-04 10:53:00
6:53 AM,62.1,57.9,86,30.06,9.0,SW,4.6,-,N/A,,Overcast,220,2013-07-04 11:53:00
7:53 AM,64.0,57.0,78,30.05,10.0,SW,5.8,-,N/A,,Overcast,230,2013-07-04 12:53:00
8:53 AM,66.0,57.9,75,30.05,10.0,SSW,6.9,-,N/A,,Overcast,210,2013-07-04 13:53:00
9:53 AM,71.1,57.9,63,30.04,10.0,Variable,5.8,-,N/A,,Scattered Clouds,0,2013-07-04 14:53:00
10:53 AM,73.0,55.9,55,30.03,10.0,Variable,4.6,-,N/A,,Clear,0,2013-07-04 15:53:00
11:53 AM,77.0,55.0,47,30.02,10.0,Variable,6.9,-,N/A,,Clear,0,2013-07-04 16:53:00
12:53 PM,75.0,55.0,50,30.01,10.0,Variable,5.8,-,N/A,,Clear,0,2013-07-04 17:53:00
1:53 PM,77.0,55.9,48,30.00,10.0,SW,6.9,-,N/A,,Scattered Clouds,230,2013-07-04 18:53:00
2:53 PM,77.0,55.9,48,29.99,10.0,SSW,11.5,-,N/A,,Mostly Cloudy,200,2013-07-04 19:53:00
3:53 PM,78.1,57.0,48,29.99,10.0,South,10.4,-,N/A,,Mostly Cloudy,190,2013-07-04 20:53:00
4:53 PM,79.0,57.0,47,29.99,10.0,SW,13.8,-,N/A,,Clear,220,2013-07-04 21:53:00
5:53 PM,78.1,57.0,48,29.99,10.0,SW,9.2,19.6,N/A,,Mostly Cloudy,220,2013-07-04 22:53:00
6:53 PM,77.0,55.9,48,29.99,10.0,SW,11.5,17.3,N/A,,Partly Cloudy,220,2013-07-04 23:53:00
7:53 PM,73.9,57.0,55,29.98,10.0,SSW,5.8,-,N/A,,Clear,200,2013-07-05 00:53:00
8:53 PM,72.0,55.9,57,29.98,10.0,SW,5.8,-,N/A,,Clear,220,2013-07-05 01:53:00
9:53 PM,68.0,57.0,68,30.00,10.0,SSW,4.6,-,N/A,,Clear,200,2013-07-05 02:53:00
10:53 PM,68.0,55.9,65,30.00,10.0,SSW,4.6,-,N/A,,Clear,210,2013-07-05 03:53:00
11:53 PM,66.0,55.0,68,30.00,10.0,SW,5.8,-,N/A,,Clear,220,2013-07-05 04:53:00